Kenai, AK

12:07 PM AKST on December 08, 2019 (GMT -0900)
Kenai Municipal

Weather History for PAEN - October, 2019

Change the Weather History Date:

Monday, October 28, 2019

  Actual Average Record
Temperature  
Mean Temperature 46 °F -  
Max Temperature 52 °F 35 °F 52 °F (2019)
Min Temperature 39 °F 22 °F -3 °F (1971)
Degree Days  
Heating Degree Days 20    
Moisture  
Dew Point 41 °F    
Average Humidity 79    
Maximum Humidity 90    
Minimum Humidity 71    
Precipitation  
Precipitation 0.04 in - - ()
Sea Level Pressure  
Sea Level Pressure 29.90 in    
Wind  
Wind Speed 6 mph (East)    
Max Wind Speed 10 mph    
Max Gust Speed -    
Visibility 10 miles    
Events Rain    
Averages and records for this station are not official NWS values.
T = Trace of Precipitation, MM = Missing Value Source: NWS Daily Summary

Daily Weather History Graph

Daily Weather History Graph

Search for Another Location

Airport or City:

Astronomy

Oct. 28, 2019 Rise Set
Actual Time 9:19 AM AKDT 6:17 PM AKDT
Civil Twilight 8:34 AM AKDT 7:02 PM AKDT
Nautical Twilight 7:44 AM AKDT 7:52 PM AKDT
Astronomical Twilight 6:55 AM AKDT 8:40 PM AKDT
Moon 9:52 AM AKDT (10/28) 7:02 PM AKDT (10/28)
Length of Visible Light 10h 28m
Length of Day
8h 57m
New Moon, 1% of the Moon is Illuminated
Oct 28
New Moon
Nov 4
First Quarter
Nov 12
Full
Nov 19
Last Quarter
Nov 26
New

Hourly Weather History & Observations

Time (AKDT) Temp. Windchill Dew Point Humidity Pressure Visibility Wind Dir Wind Speed Gust Speed Precip Events Conditions
12:53 AM 45.0 °F 40.6 °F 41.0 °F 86% 29.99 in 10.0 mi NNE 8.1 mph - 0.00 in Rain Light Rain
1:53 AM 46.0 °F 42.5 °F 41.0 °F 83% 29.97 in 10.0 mi NNE 6.9 mph - 0.00 in Rain Light Rain
2:53 AM 46.9 °F - 39.9 °F 77% 29.94 in 10.0 mi ENE 6.9 mph - 0.00 in   Overcast
3:53 AM 46.9 °F - 39.9 °F 77% 29.91 in 10.0 mi ENE 10.4 mph - 0.00 in Rain Light Rain
5:53 AM 46.9 °F - 39.9 °F 77% 29.86 in 10.0 mi ENE 4.6 mph - 0.00 in Rain Light Rain
6:53 AM 48.0 °F - 39.0 °F 71% 29.83 in 10.0 mi East 8.1 mph - 0.00 in   Overcast
7:53 AM 45.0 °F 41.2 °F 42.1 °F 90% 29.82 in 8.0 mi ENE 6.9 mph - 0.03 in Rain Light Rain
8:53 AM 46.9 °F - 39.9 °F 77% 29.82 in 10.0 mi ESE 4.6 mph - 0.01 in   Overcast
9:53 AM 48.0 °F - 41.0 °F 77% 29.83 in 10.0 mi East 3.5 mph - N/A   Mostly Cloudy
10:53 AM 50.0 °F - 42.1 °F 74% 29.86 in 10.0 mi Calm Calm - N/A   Overcast
11:53 AM 50.0 °F - 43.0 °F 77% 29.88 in 10.0 mi SW 10.4 mph - N/A   Clear
12:53 PM 51.1 °F - 45.0 °F 80% 29.89 in 10.0 mi SSW 8.1 mph - N/A   Partly Cloudy
1:53 PM 52.0 °F - 44.1 °F 74% 29.91 in 10.0 mi SW 5.8 mph - N/A   Clear
2:53 PM 51.1 °F - 42.1 °F 71% 29.90 in 10.0 mi West 8.1 mph - N/A   Mostly Cloudy
3:53 PM 50.0 °F - 42.8 °F 76% 29.90 in 10.0 mi SW 9.2 mph - N/A   Mostly Cloudy
4:53 PM 50.0 °F - 42.1 °F 74% 29.91 in 10.0 mi SW 8.1 mph - N/A   Overcast
5:53 PM 46.9 °F - 41.0 °F 80% 29.91 in 10.0 mi Calm Calm - N/A   Clear
6:53 PM 46.0 °F - 42.1 °F 86% 29.92 in 10.0 mi Calm Calm - N/A   Mostly Cloudy
7:53 PM 44.1 °F 40.8 °F 39.0 °F 82% 29.91 in 10.0 mi SE 5.8 mph - N/A   Clear
8:53 PM 39.9 °F 35.8 °F 36.0 °F 86% 29.92 in 10.0 mi ENE 5.8 mph - N/A   Mostly Cloudy
9:53 PM 39.9 °F - 36.0 °F 86% 29.91 in 10.0 mi Calm Calm - N/A   Overcast
10:53 PM 42.1 °F 37.7 °F 36.0 °F 79% 29.91 in 10.0 mi East 6.9 mph - N/A   Overcast
11:53 PM 43.0 °F 39.5 °F 37.0 °F 80% 29.90 in 10.0 mi East 5.8 mph - 0.00 in   Overcast